contact:dominique.lefevre@mio.osupytheas.fr, maurice.libes@osupytheas.fr, didier.mallarino@osupytheas.fr
Project:EMSO http://www.emso-fr.org/EMSO-France
Depth: 2436.0 m
Title:EMSO Ligure Ouest : Data MII capteur MICROCAT
DateTime_Computer,Latitude,Longitude,Temperature,Conductivity,Pressure,DateTime_Instrument
DateTime_Computer,Latitude,Longitude,degC,S m-1,dbar,DateTime_Instrument
2019-08-23T00:02:11Z,42.805,6.029,13.2959,4.59956,2469.97,2019-8-23T02:02:32Z
2019-08-23T00:05:14Z,42.805,6.029,13.2957,4.59956,2469.947,2019-8-23T02:05:35Z
2019-08-23T00:08:17Z,42.805,6.029,13.2956,4.59957,2469.947,2019-8-23T02:08:39Z
2019-08-23T00:11:21Z,42.805,6.029,13.2957,4.59956,2469.96,2019-8-23T02:11:42Z
2019-08-23T00:14:24Z,42.805,6.029,13.2953,4.59956,2469.97,2019-8-23T02:14:45Z
2019-08-23T00:17:27Z,42.805,6.029,13.2957,4.59958,2469.923,2019-8-23T02:17:48Z
2019-08-23T00:20:30Z,42.805,6.029,13.2957,4.59956,2469.97,2019-8-23T02:20:52Z
2019-08-23T00:23:33Z,42.805,6.029,13.2957,4.59958,2469.984,2019-8-23T02:23:55Z
2019-08-23T00:26:37Z,42.805,6.029,13.2957,4.59958,2470.007,2019-8-23T02:26:58Z
2019-08-23T00:29:40Z,42.805,6.029,13.2955,4.59957,2469.96,2019-8-23T02:30:01Z
2019-08-23T00:32:43Z,42.805,6.029,13.2956,4.59955,2469.984,2019-8-23T02:33:04Z
2019-08-23T00:35:46Z,42.805,6.029,13.2953,4.59956,2469.923,2019-8-23T02:36:08Z
2019-08-23T00:38:49Z,42.805,6.029,13.2954,4.59954,2469.96,2019-8-23T02:39:11Z
2019-08-23T00:41:53Z,42.805,6.029,13.2957,4.59955,2469.97,2019-8-23T02:42:14Z
2019-08-23T00:44:56Z,42.805,6.029,13.2954,4.59955,2469.937,2019-8-23T02:45:17Z
2019-08-23T00:47:59Z,42.805,6.029,13.2950,4.59956,2469.96,2019-8-23T02:48:20Z
2019-08-23T00:51:02Z,42.805,6.029,13.2959,4.59956,2469.96,2019-8-23T02:51:23Z
2019-08-23T00:54:05Z,42.805,6.029,13.2953,4.59956,2469.947,2019-8-23T02:54:27Z
2019-08-23T00:57:09Z,42.805,6.029,13.2954,4.59958,2469.937,2019-8-23T02:57:30Z
2019-08-23T01:00:12Z,42.805,6.029,13.2959,4.59954,2469.937,2019-8-23T03:00:33Z
2019-08-23T01:03:15Z,42.805,6.029,13.2959,4.59956,2469.947,2019-8-23T03:03:36Z
2019-08-23T01:06:18Z,42.805,6.029,13.2958,4.59958,2469.937,2019-8-23T03:06:39Z
2019-08-23T01:09:21Z,42.805,6.029,13.2954,4.59957,2469.96,2019-8-23T03:09:43Z
2019-08-23T01:12:25Z,42.805,6.029,13.2954,4.59960,2469.97,2019-8-23T03:12:46Z
2019-08-23T01:15:28Z,42.805,6.029,13.2953,4.59956,2469.937,2019-8-23T03:15:49Z
2019-08-23T01:18:31Z,42.805,6.029,13.2958,4.59958,2469.923,2019-8-23T03:18:52Z
2019-08-23T01:21:34Z,42.805,6.029,13.2964,4.59964,2469.9,2019-8-23T03:21:56Z
2019-08-23T01:24:37Z,42.805,6.029,13.2986,4.59981,2469.876,2019-8-23T03:24:59Z
2019-08-23T01:27:41Z,42.805,6.029,13.2957,4.59961,2469.947,2019-8-23T03:28:02Z
2019-08-23T01:30:44Z,42.805,6.029,13.2956,4.59958,2469.97,2019-8-23T03:31:05Z
2019-08-23T01:33:47Z,42.805,6.029,13.2957,4.59958,2469.947,2019-8-23T03:34:08Z
2019-08-23T01:36:50Z,42.805,6.029,13.2958,4.59956,2469.914,2019-8-23T03:37:12Z
2019-08-23T01:39:53Z,42.805,6.029,13.2957,4.59956,2469.96,2019-8-23T03:40:15Z
2019-08-23T01:42:57Z,42.805,6.029,13.2957,4.59957,2469.937,2019-8-23T03:43:18Z
2019-08-23T01:46:00Z,42.805,6.029,13.2954,4.59958,2469.914,2019-8-23T03:46:21Z
2019-08-23T01:49:03Z,42.805,6.029,13.2957,4.59959,2469.937,2019-8-23T03:49:24Z
2019-08-23T01:52:06Z,42.805,6.029,13.2953,4.59954,2469.937,2019-8-23T03:52:28Z
2019-08-23T01:55:09Z,42.805,6.029,13.2963,4.59959,2469.947,2019-8-23T03:55:31Z
2019-08-23T01:58:13Z,42.805,6.029,13.2955,4.59961,2469.923,2019-8-23T03:58:34Z
2019-08-23T02:01:16Z,42.805,6.029,13.2959,4.60008,2469.923,2019-8-23T04:01:37Z
2019-08-23T02:04:19Z,42.805,6.029,13.2960,4.59964,2469.96,2019-8-23T04:04:40Z
2019-08-23T02:07:22Z,42.805,6.029,13.2964,4.59964,2469.923,2019-8-23T04:07:44Z
2019-08-23T02:10:25Z,42.805,6.029,13.2955,4.59956,2469.937,2019-8-23T04:10:47Z
2019-08-23T02:13:29Z,42.805,6.029,13.2968,4.59977,2469.914,2019-8-23T04:13:50Z
2019-08-23T02:16:32Z,42.805,6.029,13.2962,4.59976,2469.914,2019-8-23T04:16:53Z
2019-08-23T02:19:35Z,42.805,6.029,13.2961,4.59958,2469.923,2019-8-23T04:19:56Z
2019-08-23T02:22:38Z,42.805,6.029,13.2959,4.59956,2469.937,2019-8-23T04:23:00Z
2019-08-23T02:25:41Z,42.805,6.029,13.2977,4.59955,2469.937,2019-8-23T04:26:03Z
2019-08-23T02:28:45Z,42.805,6.029,13.2955,4.59956,2469.914,2019-8-23T04:29:06Z
2019-08-23T02:31:48Z,42.805,6.029,13.2965,4.59959,2469.937,2019-8-23T04:32:09Z
2019-08-23T02:34:51Z,42.805,6.029,13.2952,4.59957,2469.9,2019-8-23T04:35:12Z
2019-08-23T02:37:54Z,42.805,6.029,13.2957,4.59956,2469.89,2019-8-23T04:38:15Z
2019-08-23T02:40:57Z,42.805,6.029,13.2968,4.59968,2469.9,2019-8-23T04:41:19Z
2019-08-23T02:44:01Z,42.805,6.029,13.2962,4.59958,2469.937,2019-8-23T04:44:22Z
2019-08-23T02:47:04Z,42.805,6.029,13.2956,4.59958,2469.9,2019-8-23T04:47:25Z
2019-08-23T02:50:07Z,42.805,6.029,13.2953,4.59958,2469.914,2019-8-23T04:50:28Z
2019-08-23T02:53:10Z,42.805,6.029,13.2958,4.59958,2469.9,2019-8-23T04:53:31Z
2019-08-23T02:56:13Z,42.805,6.029,13.2954,4.59957,2469.914,2019-8-23T04:56:35Z
2019-08-23T02:59:17Z,42.805,6.029,13.2961,4.59967,2469.937,2019-8-23T04:59:38Z
2019-08-23T03:02:20Z,42.805,6.029,13.2958,4.59961,2469.867,2019-8-23T05:02:41Z
2019-08-23T03:05:23Z,42.805,6.029,13.2958,4.59958,2469.914,2019-8-23T05:05:44Z
2019-08-23T03:08:26Z,42.805,6.029,13.2957,4.59956,2469.89,2019-8-23T05:08:47Z
2019-08-23T03:11:29Z,42.805,6.029,13.2960,4.59961,2469.9,2019-8-23T05:11:51Z
2019-08-23T03:14:33Z,42.805,6.029,13.2963,4.59960,2469.89,2019-8-23T05:14:54Z
2019-08-23T03:17:36Z,42.805,6.029,13.2963,4.59961,2469.876,2019-8-23T05:17:57Z
2019-08-23T03:20:39Z,42.805,6.029,13.2964,4.59965,2469.914,2019-8-23T05:21:00Z
2019-08-23T03:23:42Z,42.805,6.029,13.2961,4.59957,2469.876,2019-8-23T05:24:03Z
2019-08-23T03:26:45Z,42.805,6.029,13.2959,4.59961,2469.876,2019-8-23T05:27:07Z
2019-08-23T03:29:49Z,42.805,6.029,13.2955,4.59960,2469.867,2019-8-23T05:30:10Z
2019-08-23T03:32:52Z,42.805,6.029,13.2958,4.59958,2469.89,2019-8-23T05:33:13Z
2019-08-23T03:35:55Z,42.805,6.029,13.2968,4.59958,2469.876,2019-8-23T05:36:16Z
2019-08-23T03:38:58Z,42.805,6.029,13.2968,4.59956,2469.876,2019-8-23T05:39:19Z
2019-08-23T03:42:01Z,42.805,6.029,13.2968,4.59986,2469.914,2019-8-23T05:42:23Z
2019-08-23T03:45:05Z,42.805,6.029,13.2996,4.59988,2469.876,2019-8-23T05:45:26Z
2019-08-23T03:48:08Z,42.805,6.029,13.2986,4.59985,2469.853,2019-8-23T05:48:29Z
2019-08-23T03:51:11Z,42.805,6.029,13.2988,4.59986,2469.89,2019-8-23T05:51:32Z
2019-08-23T03:54:14Z,42.805,6.029,13.2992,4.60001,2469.876,2019-8-23T05:54:35Z
2019-08-23T03:57:17Z,42.805,6.029,13.2996,4.59984,2469.876,2019-8-23T05:57:39Z
2019-08-23T04:00:21Z,42.805,6.029,13.2991,4.59997,2469.914,2019-8-23T06:00:42Z
2019-08-23T04:03:24Z,42.805,6.029,13.2998,4.60006,2469.853,2019-8-23T06:03:45Z
2019-08-23T04:06:27Z,42.805,6.029,13.3006,4.59975,2469.853,2019-8-23T06:06:48Z
2019-08-23T04:09:30Z,42.805,6.029,13.2953,4.59958,2469.876,2019-8-23T06:09:51Z
2019-08-23T04:12:33Z,42.805,6.029,13.2958,4.59961,2469.89,2019-8-23T06:12:55Z
2019-08-23T04:15:37Z,42.805,6.029,13.2957,4.59958,2469.876,2019-8-23T06:15:58Z
2019-08-23T04:18:40Z,42.805,6.029,13.2971,4.59978,2469.876,2019-8-23T06:19:01Z
2019-08-23T04:21:43Z,42.805,6.029,13.2994,4.59977,2469.83,2019-8-23T06:22:04Z
2019-08-23T04:24:46Z,42.805,6.029,13.3000,4.59981,2469.853,2019-8-23T06:25:07Z
2019-08-23T04:27:49Z,42.805,6.029,13.2983,4.59975,2469.867,2019-8-23T06:28:11Z
2019-08-23T04:30:52Z,42.805,6.029,13.2978,4.59985,2469.853,2019-8-23T06:31:14Z
2019-08-23T04:33:56Z,42.805,6.029,13.3011,4.59980,2469.876,2019-8-23T06:34:17Z
2019-08-23T04:36:59Z,42.805,6.029,13.3004,4.59981,2469.844,2019-8-23T06:37:20Z
2019-08-23T04:40:02Z,42.805,6.029,13.2957,4.59970,2469.89,2019-8-23T06:40:23Z
2019-08-23T04:43:05Z,42.805,6.029,13.2953,4.59971,2469.876,2019-8-23T06:43:27Z
2019-08-23T04:46:09Z,42.805,6.029,13.2957,4.59970,2469.876,2019-8-23T06:46:30Z
2019-08-23T04:49:12Z,42.805,6.029,13.2961,4.59966,2469.867,2019-8-23T06:49:33Z
2019-08-23T04:52:15Z,42.805,6.029,13.2957,4.59973,2469.853,2019-8-23T06:52:36Z
2019-08-23T04:55:18Z,42.805,6.029,13.2957,4.59967,2469.876,2019-8-23T06:55:39Z
2019-08-23T04:58:21Z,42.805,6.029,13.2952,4.59961,2469.89,2019-8-23T06:58:43Z
2019-08-23T05:01:25Z,42.805,6.029,13.2957,4.59966,2469.876,2019-8-23T07:01:46Z
2019-08-23T05:04:28Z,42.805,6.029,13.2952,4.59968,2469.914,2019-8-23T07:04:49Z
2019-08-23T05:07:31Z,42.805,6.029,13.2955,4.59970,2469.867,2019-8-23T07:07:52Z
2019-08-23T05:10:34Z,42.805,6.029,13.2958,4.59969,2469.867,2019-8-23T07:10:55Z
2019-08-23T05:13:37Z,42.805,6.029,13.2976,4.59970,2469.876,2019-8-23T07:13:59Z
2019-08-23T05:16:41Z,42.805,6.029,13.2957,4.59984,2469.876,2019-8-23T07:17:02Z
2019-08-23T05:19:44Z,42.805,6.029,13.2995,4.59991,2469.844,2019-8-23T07:20:05Z
2019-08-23T05:22:47Z,42.805,6.029,13.2968,4.60007,2469.844,2019-8-23T07:23:08Z
2019-08-23T05:25:50Z,42.805,6.029,13.2998,4.60008,2469.853,2019-8-23T07:26:11Z
2019-08-23T05:28:53Z,42.805,6.029,13.2979,4.60014,2469.853,2019-8-23T07:29:15Z
2019-08-23T05:31:56Z,42.805,6.029,13.2957,4.59972,2469.83,2019-8-23T07:32:18Z
2019-08-23T05:35:00Z,42.805,6.029,13.2957,4.59971,2469.83,2019-8-23T07:35:21Z
2019-08-23T05:38:03Z,42.805,6.029,13.2953,4.59969,2469.844,2019-8-23T07:38:24Z
2019-08-23T05:41:06Z,42.805,6.029,13.2956,4.59966,2469.867,2019-8-23T07:41:27Z
2019-08-23T05:44:09Z,42.805,6.029,13.2957,4.59963,2469.853,2019-8-23T07:44:31Z
2019-08-23T05:47:12Z,42.805,6.029,13.2957,4.59967,2469.853,2019-8-23T07:47:34Z
2019-08-23T05:50:16Z,42.805,6.029,13.2948,4.59966,2469.83,2019-8-23T07:50:37Z
2019-08-23T05:53:19Z,42.805,6.029,13.2955,4.59967,2469.867,2019-8-23T07:53:40Z
2019-08-23T05:56:22Z,42.805,6.029,13.2952,4.59963,2469.89,2019-8-23T07:56:43Z
2019-08-23T05:59:25Z,42.805,6.029,13.2953,4.59966,2469.853,2019-8-23T07:59:47Z
2019-08-23T06:02:28Z,42.805,6.029,13.2958,4.59966,2469.876,2019-8-23T08:02:50Z
2019-08-23T06:05:32Z,42.805,6.029,13.2957,4.59973,2469.83,2019-8-23T08:05:53Z
2019-08-23T06:08:35Z,42.805,6.029,13.2958,4.59960,2469.867,2019-8-23T08:08:56Z
2019-08-23T06:11:38Z,42.805,6.029,13.2959,4.59956,2469.867,2019-8-23T08:11:59Z
2019-08-23T06:14:41Z,42.805,6.029,13.2957,4.59964,2469.844,2019-8-23T08:15:03Z
2019-08-23T06:17:44Z,42.805,6.029,13.2958,4.59958,2469.853,2019-8-23T08:18:06Z
2019-08-23T06:20:48Z,42.805,6.029,13.2957,4.59961,2469.89,2019-8-23T08:21:09Z
2019-08-23T06:23:51Z,42.805,6.029,13.2956,4.59978,2469.83,2019-8-23T08:24:12Z
2019-08-23T06:26:54Z,42.805,6.029,13.2957,4.59961,2469.853,2019-8-23T08:27:15Z
2019-08-23T06:29:57Z,42.805,6.029,13.2956,4.59959,2469.844,2019-8-23T08:30:19Z
2019-08-23T06:33:00Z,42.805,6.029,13.2953,4.59961,2469.853,2019-8-23T08:33:22Z
2019-08-23T06:36:04Z,42.805,6.029,13.2955,4.59957,2469.844,2019-8-23T08:36:25Z
2019-08-23T06:39:07Z,42.805,6.029,13.2955,4.59956,2469.83,2019-8-23T08:39:28Z
2019-08-23T06:42:10Z,42.805,6.029,13.2955,4.59956,2469.806,2019-8-23T08:42:31Z
2019-08-23T06:45:13Z,42.805,6.029,13.2954,4.59957,2469.83,2019-8-23T08:45:35Z
2019-08-23T06:48:16Z,42.805,6.029,13.2957,4.59957,2469.83,2019-8-23T08:48:38Z
2019-08-23T06:51:20Z,42.805,6.029,13.2956,4.59956,2469.867,2019-8-23T08:51:41Z
2019-08-23T06:54:23Z,42.805,6.029,13.2958,4.59958,2469.844,2019-8-23T08:54:44Z
2019-08-23T06:57:26Z,42.805,6.029,13.2957,4.59961,2469.83,2019-8-23T08:57:47Z
2019-08-23T07:00:29Z,42.805,6.029,13.2953,4.59960,2469.844,2019-8-23T09:00:50Z
2019-08-23T07:03:32Z,42.805,6.029,13.2958,4.59958,2469.816,2019-8-23T09:03:54Z
2019-08-23T07:06:36Z,42.805,6.029,13.2953,4.59956,2469.867,2019-8-23T09:06:57Z
2019-08-23T07:09:39Z,42.805,6.029,13.2958,4.59956,2469.83,2019-8-23T09:10:00Z
2019-08-23T07:12:42Z,42.805,6.029,13.2955,4.59958,2469.844,2019-8-23T09:13:03Z
2019-08-23T07:15:45Z,42.805,6.029,13.2952,4.59956,2469.867,2019-8-23T09:16:06Z
2019-08-23T07:18:48Z,42.805,6.029,13.2957,4.59958,2469.83,2019-8-23T09:19:10Z
2019-08-23T07:21:51Z,42.805,6.029,13.2955,4.59956,2469.867,2019-8-23T09:22:13Z
2019-08-23T07:24:55Z,42.805,6.029,13.2956,4.59956,2469.867,2019-8-23T09:25:16Z
2019-08-23T07:27:58Z,42.805,6.029,13.2958,4.59957,2469.853,2019-8-23T09:28:19Z
2019-08-23T07:31:01Z,42.805,6.029,13.2958,4.59956,2469.867,2019-8-23T09:31:23Z
2019-08-23T07:34:04Z,42.805,6.029,13.2959,4.59956,2469.844,2019-8-23T09:34:26Z
2019-08-23T07:37:08Z,42.805,6.029,13.2956,4.59957,2469.89,2019-8-23T09:37:29Z
2019-08-23T07:40:11Z,42.805,6.029,13.2957,4.59957,2469.821,2019-8-23T09:40:32Z
2019-08-23T07:43:14Z,42.805,6.029,13.2958,4.59956,2469.853,2019-8-23T09:43:35Z
2019-08-23T07:46:17Z,42.805,6.029,13.2964,4.59956,2469.83,2019-8-23T09:46:38Z
2019-08-23T07:49:20Z,42.805,6.029,13.2960,4.59957,2469.806,2019-8-23T09:49:42Z
2019-08-23T07:52:24Z,42.805,6.029,13.2957,4.59956,2469.867,2019-8-23T09:52:45Z
2019-08-23T07:55:27Z,42.805,6.029,13.2961,4.59481,2469.867,2019-8-23T09:55:48Z
2019-08-23T07:58:30Z,42.805,6.029,13.2958,4.59956,2469.867,2019-8-23T09:58:52Z
2019-08-23T08:01:34Z,42.805,6.029,13.2972,4.59960,2469.853,2019-8-23T10:01:55Z
2019-08-23T08:04:37Z,42.805,6.029,13.2969,4.59963,2469.876,2019-8-23T10:04:58Z
2019-08-23T08:07:40Z,42.805,6.029,13.2968,4.59960,2469.867,2019-8-23T10:08:01Z
2019-08-23T08:10:43Z,42.805,6.029,13.2971,4.59961,2469.867,2019-8-23T10:11:04Z
2019-08-23T08:13:46Z,42.805,6.029,13.2964,4.59966,2469.89,2019-8-23T10:14:08Z
2019-08-23T08:16:50Z,42.805,6.029,13.2957,4.59971,2469.853,2019-8-23T10:17:11Z
2019-08-23T08:19:53Z,42.805,6.029,13.2957,4.59958,2469.83,2019-8-23T10:20:14Z
2019-08-23T08:22:56Z,42.805,6.029,13.2955,4.59966,2469.853,2019-8-23T10:23:17Z
2019-08-23T08:25:59Z,42.805,6.029,13.2957,4.59960,2469.83,2019-8-23T10:26:20Z
2019-08-23T08:29:02Z,42.805,6.029,13.2960,4.59960,2469.89,2019-8-23T10:29:24Z
2019-08-23T08:32:06Z,42.805,6.029,13.2958,4.59960,2469.89,2019-8-23T10:32:27Z
2019-08-23T08:35:09Z,42.805,6.029,13.2955,4.59965,2469.853,2019-8-23T10:35:30Z
2019-08-23T08:38:12Z,42.805,6.029,13.2958,4.59956,2469.853,2019-8-23T10:38:33Z
2019-08-23T08:41:15Z,42.805,6.029,13.2958,4.59958,2469.876,2019-8-23T10:41:37Z
2019-08-23T08:44:19Z,42.805,6.029,13.2964,4.59956,2469.876,2019-8-23T10:44:40Z
2019-08-23T08:47:22Z,42.805,6.029,13.2960,4.59957,2469.876,2019-8-23T10:47:43Z
2019-08-23T08:50:25Z,42.805,6.029,13.2958,4.59956,2469.89,2019-8-23T10:50:46Z
2019-08-23T08:53:28Z,42.805,6.029,13.2957,4.59956,2469.876,2019-8-23T10:53:49Z
2019-08-23T08:56:31Z,42.805,6.029,13.2963,4.59962,2469.876,2019-8-23T10:56:53Z
2019-08-23T08:59:35Z,42.805,6.029,13.2961,4.59958,2469.9,2019-8-23T10:59:56Z
2019-08-23T09:02:38Z,42.805,6.029,13.2967,4.59966,2469.876,2019-8-23T11:02:59Z
2019-08-23T09:05:41Z,42.805,6.029,13.2967,4.59958,2469.876,2019-8-23T11:06:02Z
2019-08-23T09:08:44Z,42.805,6.029,13.2961,4.59958,2469.876,2019-8-23T11:09:05Z
2019-08-23T09:11:47Z,42.805,6.029,13.2961,4.59959,2469.89,2019-8-23T11:12:09Z
2019-08-23T09:14:51Z,42.805,6.029,13.2967,4.59960,2469.844,2019-8-23T11:15:12Z
2019-08-23T09:17:54Z,42.805,6.029,13.2974,4.59958,2469.876,2019-8-23T11:18:15Z
2019-08-23T09:20:57Z,42.805,6.029,13.2961,4.59958,2469.9,2019-8-23T11:21:18Z
2019-08-23T09:24:00Z,42.805,6.029,13.2964,4.59956,2469.853,2019-8-23T11:24:21Z
2019-08-23T09:27:03Z,42.805,6.029,13.2960,4.59955,2469.89,2019-8-23T11:27:25Z
2019-08-23T09:30:07Z,42.805,6.029,13.2957,4.59962,2469.923,2019-8-23T11:30:28Z
2019-08-23T09:33:10Z,42.805,6.029,13.2958,4.59957,2469.876,2019-8-23T11:33:31Z
2019-08-23T09:36:13Z,42.805,6.029,13.2954,4.59959,2469.914,2019-8-23T11:36:34Z
2019-08-23T09:39:16Z,42.805,6.029,13.2954,4.59958,2469.876,2019-8-23T11:39:38Z
2019-08-23T09:42:19Z,42.805,6.029,13.2957,4.59957,2469.9,2019-8-23T11:42:41Z
2019-08-23T09:45:23Z,42.805,6.029,13.2956,4.59964,2469.937,2019-8-23T11:45:44Z
2019-08-23T09:48:26Z,42.805,6.029,13.2958,4.59955,2469.9,2019-8-23T11:48:47Z
2019-08-23T09:51:29Z,42.805,6.029,13.2960,4.59955,2469.923,2019-8-23T11:51:50Z
2019-08-23T09:54:32Z,42.805,6.029,13.2958,4.59963,2469.951,2019-8-23T11:54:54Z
2019-08-23T09:57:36Z,42.805,6.029,13.2955,4.59961,2469.923,2019-8-23T11:57:57Z
2019-08-23T10:00:39Z,42.805,6.029,13.2957,4.59959,2469.914,2019-8-23T12:01:00Z
2019-08-23T10:03:42Z,42.805,6.029,13.2956,4.59956,2469.886,2019-8-23T12:04:03Z
2019-08-23T10:06:45Z,42.805,6.029,13.2956,4.59954,2469.937,2019-8-23T12:07:07Z
2019-08-23T10:09:48Z,42.805,6.029,13.2956,4.59954,2469.923,2019-8-23T12:10:10Z
2019-08-23T10:12:52Z,42.805,6.029,13.2952,4.59955,2469.923,2019-8-23T12:13:13Z
2019-08-23T10:15:55Z,42.805,6.029,13.2957,4.59958,2469.9,2019-8-23T12:16:16Z
2019-08-23T10:18:58Z,42.805,6.029,13.2957,4.59961,2469.923,2019-8-23T12:19:19Z
2019-08-23T10:22:01Z,42.805,6.029,13.2957,4.59960,2469.914,2019-8-23T12:22:23Z
2019-08-23T10:25:04Z,42.805,6.029,13.2955,4.59956,2469.9,2019-8-23T12:25:26Z
2019-08-23T10:28:08Z,42.805,6.029,13.2953,4.59955,2469.914,2019-8-23T12:28:29Z
2019-08-23T10:31:11Z,42.805,6.029,13.2953,4.59961,2469.947,2019-8-23T12:31:32Z
2019-08-23T10:34:14Z,42.805,6.029,13.2961,4.59960,2469.937,2019-8-23T12:34:35Z
2019-08-23T10:37:17Z,42.805,6.029,13.2957,4.59958,2469.937,2019-8-23T12:37:38Z
2019-08-23T10:40:20Z,42.805,6.029,13.2958,4.59958,2469.914,2019-8-23T12:40:42Z
2019-08-23T10:43:24Z,42.805,6.029,13.2959,4.59961,2469.923,2019-8-23T12:43:45Z
2019-08-23T10:46:27Z,42.805,6.029,13.2955,4.59966,2469.937,2019-8-23T12:46:48Z
2019-08-23T10:49:30Z,42.805,6.029,13.2956,4.59954,2469.923,2019-8-23T12:49:51Z
2019-08-23T10:52:33Z,42.805,6.029,13.2954,4.59956,2469.923,2019-8-23T12:52:55Z
2019-08-23T10:55:36Z,42.805,6.029,13.2953,4.59957,2469.923,2019-8-23T12:55:58Z
2019-08-23T10:58:40Z,42.805,6.029,13.2954,4.59956,2469.9,2019-8-23T12:59:01Z
2019-08-23T11:01:43Z,42.805,6.029,13.2957,4.59955,2469.923,2019-8-23T13:02:04Z
2019-08-23T11:04:46Z,42.805,6.029,13.2962,4.59960,2469.923,2019-8-23T13:05:07Z
2019-08-23T11:07:49Z,42.805,6.029,13.2957,4.59955,2469.97,2019-8-23T13:08:11Z
2019-08-23T11:10:52Z,42.805,6.029,13.2961,4.59956,2469.947,2019-8-23T13:11:14Z
2019-08-23T11:13:56Z,42.805,6.029,13.2958,4.59960,2469.914,2019-8-23T13:14:17Z
2019-08-23T11:16:59Z,42.805,6.029,13.2958,4.59956,2469.96,2019-8-23T13:17:20Z
2019-08-23T11:20:02Z,42.805,6.029,13.2958,4.59958,2469.947,2019-8-23T13:20:23Z
2019-08-23T11:23:05Z,42.805,6.029,13.2960,4.59956,2469.96,2019-8-23T13:23:27Z
2019-08-23T11:26:08Z,42.805,6.029,13.2962,4.59955,2469.937,2019-8-23T13:26:30Z
2019-08-23T11:29:12Z,42.805,6.029,13.2956,4.59954,2469.937,2019-8-23T13:29:33Z
2019-08-23T11:32:15Z,42.805,6.029,13.2966,4.59955,2469.947,2019-8-23T13:32:36Z
2019-08-23T11:35:18Z,42.805,6.029,13.2955,4.59957,2469.937,2019-8-23T13:35:39Z
2019-08-23T11:38:21Z,42.805,6.029,13.2954,4.59960,2469.937,2019-8-23T13:38:43Z
2019-08-23T11:41:24Z,42.805,6.029,13.2953,4.59959,2469.993,2019-8-23T13:41:46Z
2019-08-23T11:44:28Z,42.805,6.029,13.2961,4.59966,2469.947,2019-8-23T13:44:49Z
2019-08-23T11:47:31Z,42.805,6.029,13.2958,4.59964,2469.947,2019-8-23T13:47:52Z
2019-08-23T11:50:34Z,42.805,6.029,13.2955,4.59958,2469.96,2019-8-23T13:50:55Z
2019-08-23T11:53:37Z,42.805,6.029,13.2959,4.59956,2469.937,2019-8-23T13:53:59Z
2019-08-23T11:56:41Z,42.805,6.029,13.2961,4.59958,2469.937,2019-8-23T13:57:02Z
2019-08-23T11:59:44Z,42.805,6.029,13.2958,4.59956,2469.947,2019-8-23T14:00:05Z
2019-08-23T12:02:47Z,42.805,6.029,13.2959,4.59956,2469.923,2019-8-23T14:03:08Z
2019-08-23T12:05:50Z,42.805,6.029,13.2956,4.59956,2469.923,2019-8-23T14:06:12Z
2019-08-23T12:08:53Z,42.805,6.029,13.2956,4.59955,2469.97,2019-8-23T14:09:15Z
2019-08-23T12:11:57Z,42.805,6.029,13.2959,4.59957,2469.97,2019-8-23T14:12:18Z
2019-08-23T12:15:00Z,42.805,6.029,13.2953,4.59956,2469.937,2019-8-23T14:15:21Z
2019-08-23T12:18:03Z,42.805,6.029,13.2958,4.59957,2469.923,2019-8-23T14:18:24Z
2019-08-23T12:21:06Z,42.805,6.029,13.2955,4.59964,2469.96,2019-8-23T14:21:28Z
2019-08-23T12:24:09Z,42.805,6.029,13.2958,4.59956,2469.923,2019-8-23T14:24:31Z
2019-08-23T12:27:13Z,42.805,6.029,13.2954,4.59956,2469.97,2019-8-23T14:27:34Z
2019-08-23T12:30:16Z,42.805,6.029,13.2961,4.59955,2469.937,2019-8-23T14:30:37Z
2019-08-23T12:33:19Z,42.805,6.029,13.2956,4.59956,2469.97,2019-8-23T14:33:40Z
2019-08-23T12:36:22Z,42.805,6.029,13.2954,4.59957,2469.947,2019-8-23T14:36:44Z
2019-08-23T12:39:25Z,42.805,6.029,13.2953,4.59964,2469.923,2019-8-23T14:39:47Z
2019-08-23T12:42:29Z,42.805,6.029,13.2954,4.59957,2469.923,2019-8-23T14:42:50Z
2019-08-23T12:45:32Z,42.805,6.029,13.2956,4.59959,2469.937,2019-8-23T14:45:53Z
2019-08-23T12:48:35Z,42.805,6.029,13.2959,4.59956,2469.97,2019-8-23T14:48:56Z
2019-08-23T12:51:38Z,42.805,6.029,13.2958,4.59955,2469.923,2019-8-23T14:52:00Z
2019-08-23T12:54:42Z,42.805,6.029,13.2956,4.59956,2469.923,2019-8-23T14:55:03Z
2019-08-23T12:57:45Z,42.805,6.029,13.2958,4.59957,2469.937,2019-8-23T14:58:06Z
2019-08-23T13:00:48Z,42.805,6.029,13.2953,4.59956,2469.96,2019-8-23T15:01:09Z
2019-08-23T13:03:51Z,42.805,6.029,13.2964,4.59954,2469.937,2019-8-23T15:04:12Z
2019-08-23T13:06:54Z,42.805,6.029,13.2957,4.59954,2469.96,2019-8-23T15:07:16Z
2019-08-23T13:09:57Z,42.805,6.029,13.2956,4.59954,2469.937,2019-8-23T15:10:19Z
2019-08-23T13:13:01Z,42.805,6.029,13.2956,4.59953,2469.923,2019-8-23T15:13:22Z
2019-08-23T13:16:04Z,42.805,6.029,13.2957,4.59953,2469.923,2019-8-23T15:16:25Z
2019-08-23T13:19:07Z,42.805,6.029,13.2957,4.59953,2469.9,2019-8-23T15:19:28Z
2019-08-23T13:22:10Z,42.805,6.029,13.2952,4.59952,2469.923,2019-8-23T15:22:32Z
2019-08-23T13:25:13Z,42.805,6.029,13.2957,4.59959,2469.923,2019-8-23T15:25:35Z
2019-08-23T13:28:17Z,42.805,6.029,13.2961,4.59954,2469.9,2019-8-23T15:28:38Z
2019-08-23T13:31:20Z,42.805,6.029,13.2955,4.59955,2469.923,2019-8-23T15:31:41Z
2019-08-23T13:34:23Z,42.805,6.029,13.2954,4.59956,2469.914,2019-8-23T15:34:44Z
2019-08-23T13:37:26Z,42.805,6.029,13.2958,4.59955,2469.947,2019-8-23T15:37:48Z
2019-08-23T13:40:29Z,42.805,6.029,13.2957,4.59957,2469.947,2019-8-23T15:40:51Z
2019-08-23T13:43:33Z,42.805,6.029,13.2959,4.59954,2469.937,2019-8-23T15:43:54Z
2019-08-23T13:46:36Z,42.805,6.029,13.2956,4.59955,2469.914,2019-8-23T15:46:57Z
2019-08-23T13:49:39Z,42.805,6.029,13.2961,4.59955,2469.914,2019-8-23T15:50:00Z
2019-08-23T13:52:43Z,42.805,6.029,13.2957,4.59954,2469.914,2019-8-23T15:53:04Z
2019-08-23T13:55:46Z,42.805,6.029,13.2957,4.59954,2469.96,2019-8-23T15:56:07Z
2019-08-23T13:58:49Z,42.805,6.029,13.2957,4.59954,2469.923,2019-8-23T15:59:10Z
2019-08-23T14:01:52Z,42.805,6.029,13.2958,4.59955,2469.96,2019-8-23T16:02:14Z
2019-08-23T14:04:56Z,42.805,6.029,13.2953,4.59954,2469.9,2019-8-23T16:05:17Z
2019-08-23T14:07:59Z,42.805,6.029,13.2958,4.59955,2469.9,2019-8-23T16:08:20Z
2019-08-23T14:11:02Z,42.805,6.029,13.2957,4.59954,2469.9,2019-8-23T16:11:23Z
2019-08-23T14:14:05Z,42.805,6.029,13.2957,4.59956,2469.923,2019-8-23T16:14:27Z
2019-08-23T14:17:08Z,42.805,6.029,13.2956,4.59954,2469.947,2019-8-23T16:17:30Z
2019-08-23T14:20:12Z,42.805,6.029,13.2957,4.59964,2469.923,2019-8-23T16:20:33Z
2019-08-23T14:23:15Z,42.805,6.029,13.2956,4.59956,2469.9,2019-8-23T16:23:36Z
2019-08-23T14:26:18Z,42.805,6.029,13.2957,4.59956,2469.96,2019-8-23T16:26:39Z
2019-08-23T14:29:21Z,42.805,6.029,13.2953,4.59957,2469.9,2019-8-23T16:29:43Z
2019-08-23T14:32:24Z,42.805,6.029,13.2957,4.59956,2469.96,2019-8-23T16:32:46Z
2019-08-23T14:35:28Z,42.805,6.029,13.2959,4.59968,2469.89,2019-8-23T16:35:49Z
2019-08-23T14:38:31Z,42.805,6.029,13.2957,4.59956,2469.914,2019-8-23T16:38:52Z
2019-08-23T14:41:34Z,42.805,6.029,13.2956,4.59955,2469.937,2019-8-23T16:41:55Z
2019-08-23T14:44:37Z,42.805,6.029,13.2958,4.59955,2469.914,2019-8-23T16:44:59Z
2019-08-23T14:47:40Z,42.805,6.029,13.2953,4.59955,2469.9,2019-8-23T16:48:02Z
2019-08-23T14:50:44Z,42.805,6.029,13.2953,4.59954,2469.914,2019-8-23T16:51:05Z
2019-08-23T14:53:47Z,42.805,6.029,13.2957,4.59956,2469.876,2019-8-23T16:54:08Z
2019-08-23T14:56:50Z,42.805,6.029,13.2958,4.59956,2469.914,2019-8-23T16:57:11Z
2019-08-23T14:59:53Z,42.805,6.029,13.2955,4.59956,2469.914,2019-8-23T17:00:15Z
2019-08-23T15:02:57Z,42.805,6.029,13.2957,4.59955,2469.876,2019-8-23T17:03:18Z
2019-08-23T15:06:00Z,42.805,6.029,13.2954,4.59955,2469.914,2019-8-23T17:06:21Z
2019-08-23T15:09:03Z,42.805,6.029,13.2961,4.59955,2469.923,2019-8-23T17:09:24Z
2019-08-23T15:12:06Z,42.805,6.029,13.2957,4.59954,2469.937,2019-8-23T17:12:27Z
2019-08-23T15:15:09Z,42.805,6.029,13.2953,4.59957,2469.876,2019-8-23T17:15:31Z